[[{"header":{"parameterUnit":"m.s-1","parameterCategory":2,"la1":30.2991,"la2":30.254,"lo1":-89.0895,"lo2":-89.0444,"dy":0.0017,"dx":0.0017,"nx":28,"ny":28,"refTime":"2024-05-13T03:00:00:Z","depth":"0","parameterNumber":2,"parameterNumberName":"U-component_of_CURRENTS"},"data":[0,0,0,0,0,0,0,0,0,0,0,0,0,0,0,0,0,0,0,0,0,0,0,0,0,0,0,0,0,0,0,0,0,0,0,0,0,0,0,0,0,0,0,0,0,0,0,0,0,0,0,0,0,0,0,0,0,0,0.1595,0.1594,0,0.1555,0.1554,0.1554,0.1545,0.1545,0.1546,0.1546,0.1533,0.1532,0.1531,0,0,0,0,0,0,0,0,0,0,0,0,0,0.1662,0.1661,0.1595,0.1594,0.1594,0.1555,0.1554,0.1553,0.1545,0.1545,0.1546,0.1546,0.1533,0.1532,0.1531,0,0,0,0,0,0,0,0,0,0,0,0,0,0.1627,0.166,0.1595,0.1586,0.1585,0.1555,0.1554,0.1553,0.1545,0.1545,0.1546,0.1546,0.1533,0.1532,0.1531,0.1511,0,0,0.1527,0.1527,0,0,0,0,0,0,0,0,0.1629,0.1624,0.1588,0.1587,0.1585,0.1557,0.1573,0.1541,0.1544,0.1558,0.1546,0.1547,0.1544,0.1542,0.153,0.151,0.151,0.1527,0.1527,0.1526,0.1526,0,0,0,0,0,0,0,0.1631,0.1626,0.1577,0.1587,0.1586,0.1584,0.1579,0.1567,0.1547,0.1557,0.1557,0.1555,0.1543,0.1531,0.153,0.151,0.1527,0.1526,0.1526,0.1525,0.1522,0.1523,0,0,0,0,0,0,0.1638,0.1628,0.1579,0.1576,0.1611,0.1582,0.1577,0.1564,0.1547,0.1545,0.1554,0.1554,0.1533,0.1531,0.1529,0.1555,0.1526,0.1525,0.1524,0.1522,0.1522,0.1523,0,0,0,0,0,0,0.164,0.1634,0.158,0.1603,0.1597,0.158,0.1566,0.1563,0.1559,0.1544,0.1543,0.1554,0.1533,0.1531,0.1525,0.1553,0.1525,0.1524,0.1521,0.1522,0.1523,0.1575,0,0,0,0,0,0,0.1642,0.1634,0.163,0.1603,0.1596,0.1571,0.1565,0.1562,0.1557,0.1557,0.1544,0.1542,0.1534,0.1527,0.1524,0.1551,0.1523,0.152,0.1521,0.1522,0.1572,0.1577,0.1581,0,0,0,0,0,0.1644,0.163,0.163,0.1625,0.1589,0.1571,0.1567,0.1557,0.1556,0.1555,0.1546,0.1543,0.1533,0.1526,0.1523,0.155,0.152,0.1521,0.1522,0.157,0.1576,0.1581,0,0,0,0,0,0,0.1652,0.1628,0.1627,0.1605,0.1596,0.157,0.1567,0.156,0.155,0.1554,0.154,0.1538,0.1548,0.1535,0.1528,0.1552,0.153,0.1531,0.1568,0.1573,0.1578,0.1592,0.1522,0,0,0,0,0,0.1654,0.1639,0.1622,0.1606,0.1604,0.1588,0.158,0.1576,0.1562,0.1558,0.1549,0.1545,0.1548,0.1549,0.1544,0.1548,0.1571,0.1566,0.157,0.1574,0.1584,0.1636,0.1647,0.1527,0.1527,0.1527,0,0,0.1651,0.1637,0.1628,0.1608,0.1599,0.1601,0.1585,0.1577,0.1584,0.1559,0.1563,0.1557,0.1551,0.1563,0.1567,0.1557,0.1624,0.1576,0.158,0.1587,0.1638,0.165,0.1661,0.1528,0.1528,0.1528,0,0,0.1646,0.163,0.1624,0.1621,0.1616,0.1609,0.1611,0.1594,0.1595,0.1593,0.1588,0.1599,0.1586,0.1598,0.1601,0.1626,0.1646,0.1625,0.1664,0.1714,0.1725,0.1734,0.1799,0.1814,0.163,0.163,0.163,0,0.1648,0.1637,0.1621,0.1624,0.1626,0.1617,0.1624,0.1622,0.1608,0.1619,0.1604,0.1616,0.1609,0.1643,0.1654,0.164,0.1674,0.1644,0.1722,0.1732,0.1741,0.1805,0.1821,0.1633,0.1632,0.1632,0.1632,0,0.1647,0.1644,0.1641,0.1646,0.1647,0.1647,0.1651,0.1657,0.1657,0.1662,0.1687,0.1676,0.169,0.1692,0.1679,0.1741,0.1748,0.1723,0.1713,0.1757,0.1821,0.1837,0.1636,0.1635,0.1635,0.1634,0,0,0.1637,0.164,0.1642,0.1653,0.166,0.1659,0.1682,0.1701,0.173,0.1724,0.1764,0.1766,0.177,0.1773,0.1766,0.1804,0.19,0.1794,0.1795,0.1867,0.2033,0.2065,0.2086,0.1892,0.1894,0.1896,0.206,0,0.1646,0.1653,0.1657,0.1676,0.1682,0.1694,0.1718,0.174,0.1758,0.1795,0.1806,0.1833,0.18,0.1814,0.185,0.1884,0.1941,0.1859,0.1971,0.1975,0.2006,0.2104,0.2101,0.2249,0.2075,0.2078,0.208,0,0.1653,0.1656,0.167,0.1697,0.1704,0.172,0.1767,0.1789,0.1844,0.1861,0.1896,0.1905,0.1962,0.1921,0.2024,0.1975,0.2015,0.2039,0.2045,0.2068,0.2037,0.2171,0.2284,0.2246,0.2104,0.2102,0.21,0,0.1653,0.1671,0.1681,0.1688,0.1716,0.1736,0.1761,0.1811,0.1841,0.1911,0.1946,0.2003,0.2046,0.2093,0.2141,0.2094,0.2265,0.2204,0.2277,0.228,0.2296,0.2296,0.2392,0.2295,0.2295,0.2294,0.2294,0,0.1658,0.1669,0.1683,0.1688,0.1712,0.1743,0.1784,0.182,0.189,0.1953,0.1981,0.2055,0.2091,0.218,0.2203,0.2314,0.2323,0.2321,0.2336,0.2315,0.2314,0.2294,0.2243,0.23,0.2299,0.2298,0.2297,0,0.165,0.1661,0.1669,0.1697,0.1706,0.1725,0.1776,0.182,0.1887,0.1976,0.2003,0.2121,0.2258,0.2303,0.2416,0.2412,0.2449,0.2525,0.2509,0.2518,0.2519,0.2471,0.2449,0.2372,0.2636,0.2638,0.264,0,0.1642,0.1645,0.1658,0.1665,0.1675,0.1704,0.1734,0.1801,0.1862,0.2029,0.2089,0.2247,0.2374,0.2558,0.2604,0.2689,0.2563,0.2709,0.2606,0.2561,0.2518,0.2345,0.2266,0.2658,0.266,0.2661,0.2662,0,0.162,0.1624,0.1629,0.1641,0.1664,0.1685,0.1746,0.1788,0.1908,0.2009,0.2198,0.232,0.2533,0.265,0.2756,0.2792,0.26,0.2739,0.2699,0.2567,0.2379,0.2297,0.2511,0.2674,0.2673,0.2672,0.2672,0.2671,0.1594,0.1593,0.1603,0.1615,0.1641,0.1679,0.1697,0.1796,0.1902,0.2063,0.2228,0.2398,0.2616,0.2788,0.2795,0.283,0.271,0.2781,0.2739,0.2576,0.2457,0.271,0.2872,0.2872,0.2872,0.2872,0.2872,0,0.1555,0.1568,0.1582,0.1596,0.1615,0.1642,0.1714,0.1747,0.1869,0.2051,0.2211,0.2474,0.2636,0.2758,0.2902,0.2846,0.2651,0.2784,0.2545,0.2474,0.2747,0.2704,0.2829,0.2829,0.2829,0.2829,0.2829,0.2829,0.1534,0.1538,0.1552,0.1563,0.1583,0.1601,0.1634,0.1706,0.1816,0.2009,0.2167,0.2309,0.2615,0.2859,0.2902,0.2837,0.2592,0.2525,0.2426,0.2652,0.2646,0.2641,0.2591,0.269,0.2689,0.2075,0.2071,0.2068]},{"header":{"parameterUnit":"m.s-1","parameterCategory":2,"la1":30.2991,"la2":30.254,"lo1":-89.0895,"lo2":-89.0444,"dy":0.0017,"dx":0.0017,"nx":28,"ny":28,"refTime":"2024-05-13T03:00:00:Z","depth":"0","parameterNumber":3,"parameterNumberName":"V-component_of_CURRENTS"},"data":[0,0,0,0,0,0,0,0,0,0,0,0,0,0,0,0,0,0,0,0,0,0,0,0,0,0,0,0,0,0,0,0,0,0,0,0,0,0,0,0,0,0,0,0,0,0,0,0,0,0,0,0,0,0,0,0,0,0,-0.0245,-0.0246,0,-0.0269,-0.0269,-0.0269,-0.0282,-0.0282,-0.0282,-0.0282,-0.0344,-0.0346,-0.0348,0,0,0,0,0,0,0,0,0,0,0,0,0,-0.0225,-0.0225,-0.0245,-0.0246,-0.0246,-0.0269,-0.0269,-0.027,-0.0282,-0.0282,-0.0282,-0.0282,-0.0344,-0.0346,-0.0348,0,0,0,0,0,0,0,0,0,0,0,0,0,-0.024,-0.0225,-0.0245,-0.0255,-0.0256,-0.0269,-0.0269,-0.027,-0.0282,-0.0282,-0.0282,-0.0282,-0.0343,-0.0346,-0.0348,-0.0363,0,0,-0.0356,-0.0357,0,0,0,0,0,0,0,0,-0.0239,-0.0241,-0.0253,-0.0254,-0.0255,-0.0272,-0.0285,-0.0303,-0.0282,-0.0272,-0.0282,-0.0282,-0.0324,-0.0328,-0.0332,-0.0366,-0.0369,-0.0356,-0.0357,-0.0358,-0.0359,0,0,0,0,0,0,0,-0.0238,-0.024,-0.0255,-0.0253,-0.0255,-0.0262,-0.0264,-0.0288,-0.0299,-0.0273,-0.0274,-0.0276,-0.0325,-0.033,-0.0334,-0.037,-0.0356,-0.0358,-0.0359,-0.036,-0.0442,-0.0442,0,0,0,0,0,0,-0.0234,-0.0239,-0.0254,-0.0256,-0.0247,-0.0263,-0.0265,-0.0267,-0.0298,-0.0302,-0.0276,-0.0277,-0.0325,-0.0331,-0.0336,-0.0358,-0.0358,-0.0361,-0.0362,-0.0441,-0.0442,-0.0443,0,0,0,0,0,0,-0.0233,-0.0235,-0.0253,-0.0247,-0.025,-0.0263,-0.0265,-0.0268,-0.0272,-0.0299,-0.0304,-0.0279,-0.0326,-0.0332,-0.036,-0.036,-0.0362,-0.0364,-0.044,-0.0441,-0.0442,-0.0401,0,0,0,0,0,0,-0.0232,-0.0235,-0.0236,-0.0247,-0.025,-0.0257,-0.0265,-0.0268,-0.0274,-0.0275,-0.0303,-0.0309,-0.0326,-0.0356,-0.0363,-0.0364,-0.0366,-0.044,-0.0441,-0.0442,-0.0401,-0.04,-0.0399,0,0,0,0,0,-0.0232,-0.0229,-0.0236,-0.0238,-0.0252,-0.0256,-0.0259,-0.0268,-0.0274,-0.0273,-0.0298,-0.0308,-0.0369,-0.0359,-0.0366,-0.0368,-0.0439,-0.044,-0.0442,-0.0402,-0.0401,-0.0399,0,0,0,0,0,0,-0.0217,-0.023,-0.0238,-0.0239,-0.0247,-0.0258,-0.0259,-0.0267,-0.0285,-0.0289,-0.0315,-0.0322,-0.035,-0.0368,-0.0356,-0.0398,-0.0407,-0.041,-0.0374,-0.0373,-0.0372,-0.0328,-0.0368,0,0,0,0,0,-0.0216,-0.022,-0.0232,-0.0233,-0.0235,-0.0248,-0.0252,-0.0259,-0.0276,-0.0283,-0.0304,-0.0333,-0.0362,-0.0373,-0.0403,-0.0421,-0.0419,-0.043,-0.0429,-0.0427,-0.0399,-0.0404,-0.0399,-0.0448,-0.0448,-0.0448,0,0,-0.0212,-0.0219,-0.0222,-0.0231,-0.0238,-0.0233,-0.0251,-0.0254,-0.0252,-0.0288,-0.0298,-0.0333,-0.0369,-0.0392,-0.0405,-0.0405,-0.0417,-0.0429,-0.0428,-0.0399,-0.0405,-0.0399,-0.0395,-0.0449,-0.0449,-0.0448,0,0,-0.0192,-0.021,-0.02,-0.0206,-0.0214,-0.0224,-0.0224,-0.0238,-0.0246,-0.0265,-0.0293,-0.0319,-0.0364,-0.038,-0.0397,-0.0407,-0.0416,-0.0431,-0.0382,-0.0388,-0.0383,-0.0378,-0.0378,-0.0374,-0.0424,-0.0424,-0.0424,0,-0.0183,-0.0173,-0.0198,-0.0187,-0.0185,-0.0217,-0.02,-0.0216,-0.0238,-0.0237,-0.0264,-0.0314,-0.0352,-0.036,-0.0369,-0.0401,-0.0404,-0.038,-0.0382,-0.0378,-0.0374,-0.0375,-0.0371,-0.0422,-0.0422,-0.0423,-0.0423,0,-0.0149,-0.0146,-0.014,-0.0138,-0.0143,-0.0137,-0.0159,-0.0167,-0.0189,-0.02,-0.022,-0.027,-0.0291,-0.0321,-0.0349,-0.0344,-0.0357,-0.0383,-0.0376,-0.0366,-0.0369,-0.0365,-0.042,-0.042,-0.0421,-0.0421,0,0,-0.0112,-0.0114,-0.0111,-0.0099,-0.0116,-0.0111,-0.0115,-0.0115,-0.01,-0.0143,-0.0124,-0.0188,-0.0209,-0.0228,-0.0271,-0.0276,-0.0271,-0.0312,-0.0313,-0.0294,-0.0276,-0.0293,-0.0291,-0.0299,-0.0298,-0.0297,-0.0291,0,-0.0071,-0.0039,-0.0054,-0.0025,-0.0009,-0.0039,-0.0031,-0.0041,-0.0062,-0.0057,-0.0105,-0.0117,-0.0177,-0.0189,-0.0204,-0.0254,-0.0258,-0.0269,-0.0303,-0.0303,-0.0305,-0.0286,-0.0266,-0.026,-0.0288,-0.0287,-0.0286,0,-0.0022,-0.0009,0.003,0.0043,0.005,0.0061,0.0075,0.0073,0.0061,0.0047,0.0028,-0.0013,-0.0035,-0.0093,-0.0141,-0.0147,-0.0199,-0.0237,-0.0239,-0.0257,-0.0313,-0.0275,-0.0252,-0.0399,-0.0281,-0.0281,-0.0282,0,0.0031,0.0052,0.0087,0.009,0.0098,0.0116,0.0117,0.0113,0.0127,0.0114,0.0127,0.0085,0.007,0.0006,-0.0089,-0.0113,-0.0135,-0.0186,-0.0243,-0.0246,-0.0233,-0.0235,-0.0334,-0.0204,-0.0204,-0.0204,-0.0204,0,0.0084,0.0113,0.0117,0.0137,0.0186,0.017,0.0217,0.0211,0.022,0.0263,0.0186,0.022,0.0095,0.0056,-0.004,-0.012,-0.0101,-0.0212,-0.0238,-0.0222,-0.0223,-0.0355,-0.0434,-0.0204,-0.0204,-0.0204,-0.0204,0,0.014,0.0141,0.0184,0.0204,0.0214,0.0247,0.0275,0.0311,0.0306,0.0361,0.0361,0.0327,0.028,0.0156,0.0058,-0.0048,-0.0208,-0.0169,-0.0139,-0.0162,-0.0366,-0.0443,-0.0535,-0.0605,-0.0226,-0.0227,-0.0227,0,0.0173,0.02,0.0233,0.0265,0.0279,0.0318,0.0353,0.0353,0.0397,0.0446,0.049,0.0456,0.0469,0.0307,0.0108,-0.0055,-0.0197,-0.0159,-0.0208,-0.0355,-0.046,-0.0523,-0.058,-0.0179,-0.0179,-0.0179,-0.0179,0,0.0236,0.0246,0.0279,0.034,0.0384,0.0431,0.0482,0.0534,0.0561,0.0627,0.0724,0.0743,0.0577,0.0426,0.0164,0.0037,-0.0264,-0.0163,-0.0318,-0.0422,-0.049,-0.0577,-0.0211,-0.0178,-0.0178,-0.0178,-0.0178,-0.0178,0.0283,0.032,0.0362,0.0424,0.0476,0.0555,0.0618,0.0696,0.0799,0.0933,0.0926,0.1005,0.0729,0.0381,0.0154,-0.025,-0.0265,-0.0368,-0.0444,-0.0491,-0.0573,-0.0203,-0.0205,-0.0205,-0.0205,-0.0206,-0.0206,0,0.034,0.0381,0.0444,0.0521,0.0595,0.0605,0.0716,0.0807,0.0968,0.1103,0.1206,0.1151,0.0794,0.0406,-0.0139,-0.046,-0.0592,-0.064,-0.0729,-0.0772,-0.0437,-0.0452,-0.0504,-0.0503,-0.0503,-0.0503,-0.0503,-0.0503,0.0375,0.0445,0.0477,0.0613,0.0673,0.0788,0.0865,0.1018,0.1144,0.1365,0.1454,0.1482,0.1214,0.0167,-0.0565,-0.0749,-0.0976,-0.1026,-0.1158,-0.0943,-0.0924,-0.0906,-0.0941,-0.1093,-0.1094,-0.1454,-0.1458,-0.146]}],[{"header":{"parameterUnit":"m.s-1","parameterCategory":2,"la1":30.2991,"la2":30.254,"lo1":-89.0895,"lo2":-89.0444,"dy":0.0017,"dx":0.0017,"nx":28,"ny":28,"refTime":"2024-05-13T03:00:00:Z","depth":"2","parameterNumber":2,"parameterNumberName":"U-component_of_CURRENTS"},"data":[0,0,0,0,0,0,0,0,0,0,0,0,0,0,0,0,0,0,0,0,0,0,0,0,0,0,0,0,0,0,0,0,0,0,0,0,0,0,0,0,0,0,0,0,0,0,0,0,0,0,0,0,0,0,0,0,0,0,0.1409,0.141,0,0.1411,0.1411,0.1411,0.1416,0.1416,0.1417,0.1417,0.1411,0.141,0.1409,0,0,0,0,0,0,0,0,0,0,0,0,0,0.1387,0.1387,0.1409,0.141,0.141,0.1412,0.1411,0.1411,0.1416,0.1416,0.1417,0.1417,0.1411,0.141,0.1409,0,0,0,0,0,0,0,0,0,0,0,0,0,0.139,0.1388,0.1409,0.1416,0.1417,0.1412,0.1411,0.1411,0.1415,0.1416,0.1417,0.1418,0.1411,0.141,0.1409,0.139,0,0,0.1407,0.1406,0,0,0,0,0,0,0,0,0.139,0.139,0.1414,0.1415,0.1416,0.1418,0.1401,0.1405,0.1415,0.1412,0.1417,0.1418,0.1414,0.1413,0.1406,0.1389,0.1389,0.1406,0.1406,0.1405,0.1405,0,0,0,0,0,0,0,0.139,0.139,0.1406,0.1415,0.1416,0.1411,0.1412,0.1402,0.1406,0.1412,0.1413,0.142,0.1414,0.1407,0.1406,0.1389,0.1406,0.1406,0.1405,0.1405,0.1411,0.1412,0,0,0,0,0,0,0.1398,0.139,0.1406,0.1407,0.1409,0.1411,0.1412,0.1413,0.1406,0.1407,0.1419,0.142,0.1408,0.1407,0.1406,0.1436,0.1405,0.1405,0.1404,0.1411,0.1412,0.1412,0,0,0,0,0,0,0.1397,0.1399,0.1406,0.1402,0.1403,0.1412,0.1412,0.1413,0.1417,0.1412,0.1412,0.1424,0.1409,0.1407,0.1407,0.1434,0.1404,0.1403,0.141,0.1411,0.1412,0.1461,0,0,0,0,0,0,0.1396,0.1399,0.1404,0.1402,0.1404,0.1413,0.1412,0.1413,0.1421,0.1422,0.1416,0.1416,0.1409,0.1409,0.1407,0.1432,0.1403,0.1409,0.141,0.1412,0.1458,0.1464,0.1468,0,0,0,0,0,0.1396,0.14,0.1404,0.1407,0.141,0.1414,0.1414,0.1419,0.1421,0.1424,0.1421,0.1417,0.1417,0.1408,0.1405,0.1431,0.1408,0.141,0.1411,0.1456,0.1463,0.1468,0,0,0,0,0,0,0.1384,0.1401,0.1406,0.1412,0.1419,0.1416,0.1422,0.1423,0.1421,0.1426,0.1416,0.1415,0.1429,0.1418,0.1409,0.1437,0.1415,0.1416,0.145,0.1456,0.1461,0.1473,0.1402,0,0,0,0,0,0.1387,0.14,0.1408,0.1414,0.1419,0.1421,0.1424,0.1429,0.1429,0.1429,0.1425,0.1425,0.143,0.1433,0.1431,0.1438,0.1453,0.1455,0.146,0.1464,0.1473,0.1518,0.1529,0.1418,0.1418,0.1418,0,0,0.1384,0.1396,0.1402,0.1414,0.1418,0.1433,0.1424,0.1434,0.1449,0.1428,0.1441,0.1438,0.1435,0.145,0.1455,0.1446,0.1505,0.1466,0.147,0.1476,0.1521,0.1532,0.1542,0.1419,0.1418,0.1418,0,0,0.139,0.1395,0.1412,0.1422,0.1441,0.1443,0.145,0.1454,0.146,0.1469,0.1466,0.1478,0.1473,0.1486,0.149,0.1517,0.1527,0.1517,0.1554,0.1598,0.1608,0.1617,0.1657,0.1669,0.1522,0.1522,0.1522,0,0.1391,0.1409,0.1416,0.1437,0.1449,0.1452,0.1471,0.1476,0.1481,0.1493,0.1482,0.1501,0.1496,0.153,0.1542,0.153,0.1554,0.1533,0.1607,0.1616,0.1624,0.1662,0.1675,0.1525,0.1524,0.1524,0.1524,0,0.1412,0.143,0.1439,0.1471,0.1482,0.1497,0.1511,0.1523,0.1528,0.1539,0.1567,0.156,0.1577,0.1579,0.1568,0.1625,0.1623,0.1607,0.1595,0.1638,0.1675,0.1688,0.1528,0.1527,0.1527,0.1526,0,0,0.1413,0.145,0.1457,0.1473,0.1502,0.1511,0.1541,0.1569,0.1598,0.1604,0.1643,0.1651,0.1654,0.1658,0.1651,0.1685,0.1762,0.1674,0.1675,0.1719,0.1866,0.1878,0.1893,0.1763,0.1765,0.1767,0.1871,0,0.1432,0.1472,0.1489,0.1524,0.154,0.1558,0.1585,0.1613,0.1633,0.167,0.1684,0.1712,0.1683,0.1696,0.1729,0.1753,0.1796,0.1735,0.1812,0.1814,0.1826,0.1908,0.1768,0.1851,0.1883,0.1885,0.1886,0,0.1451,0.1475,0.1511,0.1549,0.156,0.1584,0.1631,0.1658,0.1713,0.173,0.1766,0.1777,0.1828,0.1794,0.1873,0.1837,0.186,0.1875,0.1879,0.1883,0.185,0.1811,0.1872,0.1907,0.1905,0.1904,0.1902,0,0.1442,0.149,0.1516,0.153,0.1575,0.1598,0.1627,0.1678,0.1708,0.1775,0.1808,0.1861,0.1897,0.1934,0.1962,0.1928,0.2053,0.2009,0.2043,0.2044,0.1936,0.1924,0.2078,0.2078,0.2078,0.2077,0.2077,0,0.145,0.1473,0.1515,0.1529,0.156,0.16,0.1642,0.168,0.1748,0.1802,0.1838,0.1894,0.1936,0.2002,0.2011,0.2081,0.2098,0.2078,0.2085,0.195,0.1938,0.1985,0.1973,0.2081,0.208,0.208,0.2079,0,0.143,0.1463,0.1488,0.1539,0.1553,0.1576,0.1635,0.1675,0.1742,0.1817,0.1844,0.1943,0.2042,0.2082,0.2164,0.2155,0.2207,0.2222,0.2064,0.2051,0.2153,0.2142,0.228,0.2282,0.2283,0.2284,0.2285,0,0.1422,0.1433,0.1476,0.149,0.1512,0.1549,0.158,0.1654,0.1706,0.1847,0.1893,0.2019,0.2098,0.2229,0.2257,0.2309,0.2286,0.2189,0.2102,0.2188,0.2181,0.2167,0.2155,0.1974,0.1972,0.1971,0.197,0,0.1395,0.1411,0.1432,0.1458,0.1489,0.1512,0.1573,0.1607,0.1719,0.1787,0.1913,0.1995,0.2161,0.2175,0.2258,0.2253,0.2169,0.2166,0.2315,0.195,0.191,0.1898,0.1894,0.1958,0.1959,0.196,0.196,0.1961,0.1366,0.1369,0.1398,0.1422,0.1452,0.1476,0.1482,0.1562,0.1626,0.1735,0.1868,0.195,0.2042,0.2116,0.2085,0.2065,0.22,0.2084,0.2083,0.2085,0.2037,0.2002,0.2058,0.206,0.2061,0.2063,0.2064,0,0.1319,0.134,0.136,0.138,0.139,0.1426,0.1477,0.1473,0.1524,0.1664,0.176,0.1716,0.1785,0.1854,0.1833,0.1866,0.1788,0.1771,0.1647,0.1665,0.1679,0.1603,0.1513,0.151,0.1508,0.1505,0,0,0.1294,0.1298,0.1314,0.1313,0.133,0.1312,0.1325,0.1339,0.1408,0.1446,0.1508,0.1708,0.1825,0.1632,0.1642,0.1567,0.1579,0.1509,0.1968,0.184,0.185,0.19,0.1811,0,0,0,0,0]},{"header":{"parameterUnit":"m.s-1","parameterCategory":2,"la1":30.2991,"la2":30.254,"lo1":-89.0895,"lo2":-89.0444,"dy":0.0017,"dx":0.0017,"nx":28,"ny":28,"refTime":"2024-05-13T03:00:00:Z","depth":"2","parameterNumber":3,"parameterNumberName":"V-component_of_CURRENTS"},"data":[0,0,0,0,0,0,0,0,0,0,0,0,0,0,0,0,0,0,0,0,0,0,0,0,0,0,0,0,0,0,0,0,0,0,0,0,0,0,0,0,0,0,0,0,0,0,0,0,0,0,0,0,0,0,0,0,0,0,-0.031,-0.031,0,-0.0338,-0.0338,-0.0339,-0.0353,-0.0353,-0.0353,-0.0353,-0.0418,-0.042,-0.0422,0,0,0,0,0,0,0,0,0,0,0,0,0,-0.0272,-0.0273,-0.031,-0.031,-0.031,-0.0338,-0.0338,-0.0339,-0.0353,-0.0353,-0.0353,-0.0353,-0.0418,-0.042,-0.0422,0,0,0,0,0,0,0,0,0,0,0,0,0,-0.0293,-0.0273,-0.031,-0.0321,-0.0322,-0.0338,-0.0338,-0.0339,-0.0353,-0.0353,-0.0353,-0.0353,-0.0417,-0.0419,-0.0422,-0.0437,0,0,-0.043,-0.0431,0,0,0,0,0,0,0,0,-0.0292,-0.0294,-0.0319,-0.032,-0.0322,-0.0342,-0.0349,-0.0373,-0.0353,-0.0341,-0.0353,-0.0353,-0.0396,-0.04,-0.0405,-0.044,-0.0443,-0.043,-0.0432,-0.0433,-0.0433,0,0,0,0,0,0,0,-0.029,-0.0293,-0.0321,-0.0319,-0.0321,-0.0326,-0.0329,-0.0354,-0.0369,-0.0342,-0.0343,-0.0347,-0.0397,-0.0402,-0.0407,-0.0444,-0.043,-0.0432,-0.0434,-0.0435,-0.0517,-0.0518,0,0,0,0,0,0,-0.0287,-0.0292,-0.032,-0.0322,-0.0307,-0.0327,-0.033,-0.0335,-0.0368,-0.0372,-0.0347,-0.0347,-0.0398,-0.0404,-0.0409,-0.043,-0.0433,-0.0435,-0.0436,-0.0517,-0.0518,-0.0518,0,0,0,0,0,0,-0.0286,-0.0289,-0.0319,-0.0307,-0.0311,-0.0327,-0.0333,-0.0336,-0.0342,-0.0371,-0.0376,-0.035,-0.0398,-0.0406,-0.0435,-0.0433,-0.0436,-0.0438,-0.0516,-0.0517,-0.0518,-0.0472,0,0,0,0,0,0,-0.0285,-0.0289,-0.0294,-0.0307,-0.0312,-0.0324,-0.0333,-0.0337,-0.0344,-0.0345,-0.0376,-0.0382,-0.0399,-0.0431,-0.0438,-0.0437,-0.044,-0.0515,-0.0516,-0.0518,-0.0473,-0.0472,-0.047,0,0,0,0,0,-0.0284,-0.0285,-0.0294,-0.0298,-0.0318,-0.0324,-0.0327,-0.0338,-0.0344,-0.0344,-0.0371,-0.0381,-0.0444,-0.0434,-0.0441,-0.0441,-0.0515,-0.0516,-0.0518,-0.0474,-0.0472,-0.047,0,0,0,0,0,0,-0.0268,-0.0287,-0.0297,-0.0304,-0.0313,-0.0326,-0.0328,-0.0338,-0.0357,-0.0362,-0.0388,-0.0396,-0.0424,-0.0443,-0.0432,-0.0471,-0.0481,-0.0485,-0.0446,-0.0444,-0.0443,-0.0401,-0.0443,0,0,0,0,0,-0.0269,-0.0277,-0.0292,-0.0298,-0.0301,-0.0316,-0.0321,-0.0329,-0.0347,-0.0355,-0.0378,-0.0408,-0.0436,-0.0448,-0.0477,-0.0495,-0.0496,-0.0503,-0.0501,-0.05,-0.0473,-0.048,-0.0476,-0.0523,-0.0523,-0.0523,0,0,-0.0265,-0.0276,-0.0282,-0.0296,-0.0304,-0.03,-0.0319,-0.0324,-0.0323,-0.0361,-0.0372,-0.0407,-0.0443,-0.0464,-0.0478,-0.0478,-0.0491,-0.0502,-0.05,-0.0473,-0.0481,-0.0476,-0.0472,-0.0524,-0.0524,-0.0524,0,0,-0.0248,-0.027,-0.0264,-0.0271,-0.0282,-0.0293,-0.0293,-0.0309,-0.0317,-0.0338,-0.0365,-0.0391,-0.0438,-0.0451,-0.0468,-0.0477,-0.0488,-0.05,-0.0451,-0.046,-0.0455,-0.045,-0.0453,-0.0449,-0.0494,-0.0493,-0.0493,0,-0.0243,-0.0237,-0.0263,-0.0254,-0.0254,-0.0285,-0.027,-0.0286,-0.0311,-0.0311,-0.0337,-0.0388,-0.0424,-0.0431,-0.0438,-0.047,-0.0476,-0.045,-0.0454,-0.045,-0.0446,-0.045,-0.0446,-0.0491,-0.0492,-0.0492,-0.0492,0,-0.0212,-0.0212,-0.0207,-0.0209,-0.0214,-0.021,-0.023,-0.0239,-0.0262,-0.0274,-0.0294,-0.0342,-0.0364,-0.0391,-0.0418,-0.0412,-0.0427,-0.0454,-0.0448,-0.0438,-0.0444,-0.0441,-0.0489,-0.0489,-0.049,-0.049,0,0,-0.0186,-0.0185,-0.0183,-0.0171,-0.0189,-0.0185,-0.0188,-0.0189,-0.0175,-0.0218,-0.0202,-0.026,-0.0281,-0.03,-0.0341,-0.0346,-0.0342,-0.0383,-0.0385,-0.0367,-0.0354,-0.0371,-0.037,-0.0371,-0.037,-0.0369,-0.037,0,-0.015,-0.0119,-0.0132,-0.0105,-0.009,-0.0117,-0.0109,-0.0119,-0.014,-0.0138,-0.0182,-0.0195,-0.025,-0.0262,-0.0276,-0.0326,-0.0331,-0.0338,-0.0381,-0.0382,-0.0383,-0.0366,-0.0343,-0.0343,-0.0367,-0.0367,-0.0366,0,-0.0109,-0.0094,-0.0057,-0.004,-0.0034,-0.0024,-0.0011,-0.0012,-0.0025,-0.004,-0.0059,-0.0098,-0.0118,-0.0173,-0.0221,-0.0225,-0.0277,-0.0315,-0.0317,-0.0338,-0.0393,-0.0358,-0.0336,-0.0361,-0.0362,-0.0362,-0.0362,0,-0.0063,-0.004,-0.0006,-0.0002,0.0009,0.0027,0.0029,0.0025,0.0037,0.0023,0.0033,-0.0007,-0.0022,-0.0085,-0.0177,-0.0198,-0.0228,-0.0274,-0.033,-0.0333,-0.0321,-0.0324,-0.0294,-0.0294,-0.0294,-0.0294,-0.0294,0,-0.0017,0.001,0.0021,0.0041,0.0089,0.0075,0.0119,0.0114,0.0121,0.016,0.0089,0.0115,-0.0,-0.0042,-0.0134,-0.0214,-0.0198,-0.0301,-0.0327,-0.0308,-0.031,-0.0334,-0.0338,-0.0294,-0.0294,-0.0294,-0.0294,0,0.0028,0.0034,0.0077,0.0102,0.0113,0.0144,0.0173,0.0206,0.0201,0.0249,0.0249,0.0211,0.0159,0.0043,-0.0055,-0.015,-0.0235,-0.027,-0.0238,-0.0261,-0.0344,-0.0347,-0.0325,-0.0325,-0.0326,-0.0326,-0.0326,0,0.0055,0.0082,0.0122,0.0153,0.0168,0.0206,0.024,0.0243,0.0283,0.0321,0.036,0.032,0.0313,0.0154,-0.0023,-0.0177,-0.0213,-0.0264,-0.0303,-0.0316,-0.0344,-0.0346,-0.0348,-0.0275,-0.0274,-0.0274,-0.0274,0,0.0106,0.0119,0.0153,0.0214,0.0259,0.0308,0.0358,0.0404,0.043,0.0477,0.0544,0.0543,0.0388,0.0235,0.0001,-0.0107,-0.0242,-0.0267,-0.0273,-0.0276,-0.027,-0.0298,-0.0301,-0.0273,-0.0273,-0.0273,-0.0273,-0.0273,0.0142,0.0176,0.0221,0.0282,0.0336,0.0415,0.0475,0.0542,0.0623,0.0718,0.0697,0.0712,0.0504,0.0223,0.0004,-0.0229,-0.0223,-0.0302,-0.0301,-0.0301,-0.0301,-0.0297,-0.0304,-0.0304,-0.0304,-0.0304,-0.0304,0,0.0184,0.0224,0.0284,0.0362,0.0436,0.0453,0.0561,0.0635,0.076,0.0837,0.0893,0.073,0.053,0.0288,-0.006,-0.0272,-0.0291,-0.0332,-0.0313,-0.0311,-0.0311,-0.0312,-0.0318,-0.0318,-0.0319,-0.032,0,0,0.0211,0.0271,0.0303,0.0433,0.0496,0.061,0.0684,0.0805,0.0888,0.0982,0.0995,0.0956,0.0639,0.0389,0.0089,-0.0114,-0.0159,-0.0148,-0.0112,-0.0052,-0.0049,-0.0267,-0.0264,0,0,0,0,0]}],[{"header":{"parameterUnit":"m.s-1","parameterCategory":2,"la1":30.2991,"la2":30.254,"lo1":-89.0895,"lo2":-89.0444,"dy":0.0017,"dx":0.0017,"nx":28,"ny":28,"refTime":"2024-05-13T03:00:00:Z","depth":"4","parameterNumber":2,"parameterNumberName":"U-component_of_CURRENTS"},"data":[0,0,0,0,0,0,0,0,0,0,0,0,0,0,0,0,0,0,0,0,0,0,0,0,0,0,0,0,0,0,0,0,0,0,0,0,0,0,0,0,0,0,0,0,0,0,0,0,0,0,0,0,0,0,0,0,0,0,0.0631,0.0632,0,0.0692,0.0693,0.0693,0.0734,0.0735,0.0735,0.0736,0.0803,0.0805,0.0806,0,0,0,0,0,0,0,0,0,0,0,0,0,0.0541,0.0542,0.0631,0.0632,0.0633,0.0692,0.0693,0.0694,0.0734,0.0735,0.0735,0.0736,0.0803,0.0804,0.0806,0,0,0,0,0,0,0,0,0,0,0,0,0,0.0587,0.0543,0.0631,0.0661,0.0665,0.0692,0.0693,0.0694,0.0734,0.0735,0.0735,0.0736,0.0802,0.0804,0.0806,0.0808,0,0,0.0813,0.0814,0,0,0,0,0,0,0,0,0.0585,0.0591,0.0656,0.0659,0.0663,0.0707,0.0686,0.0733,0.0734,0.0707,0.0736,0.0736,0.0772,0.0777,0.0785,0.0811,0.0814,0.0813,0.0814,0.0815,0.0816,0,0,0,0,0,0,0,0.0582,0.0588,0.0654,0.0657,0.0661,0.0669,0.0676,0.0695,0.0734,0.0709,0.0712,0.0721,0.0774,0.0783,0.0787,0.0815,0.0813,0.0815,0.0816,0.0817,0.0903,0.0904,0,0,0,0,0,0,0.0577,0.0585,0.0652,0.0656,0.0626,0.067,0.0678,0.0692,0.0734,0.0742,0.072,0.0723,0.0779,0.0784,0.079,0.0856,0.0815,0.0817,0.0819,0.0902,0.0904,0.0905,0,0,0,0,0,0,0.0574,0.0582,0.065,0.0623,0.0632,0.0671,0.0686,0.0692,0.0724,0.0743,0.075,0.0748,0.078,0.0787,0.083,0.0857,0.0818,0.082,0.0901,0.0903,0.0904,0.0949,0,0,0,0,0,0,0.0572,0.0581,0.0596,0.0622,0.0633,0.0679,0.0686,0.0693,0.0727,0.0732,0.0768,0.0774,0.0781,0.0827,0.0832,0.0859,0.0822,0.09,0.0902,0.0904,0.0946,0.0952,0.0957,0,0,0,0,0,0.0568,0.0586,0.0597,0.0605,0.0651,0.068,0.0687,0.0715,0.0728,0.0745,0.0775,0.0774,0.0842,0.083,0.0836,0.0864,0.0899,0.0901,0.0904,0.0944,0.0951,0.0957,0,0,0,0,0,0,0.0556,0.0593,0.0605,0.0634,0.0661,0.0688,0.0709,0.0727,0.0763,0.0772,0.079,0.0798,0.0847,0.0847,0.0832,0.0893,0.0869,0.0873,0.0898,0.0904,0.0909,0.0922,0.0824,0,0,0,0,0,0.0559,0.0584,0.0615,0.064,0.0655,0.0685,0.0704,0.0722,0.0753,0.0771,0.0798,0.0825,0.0856,0.0874,0.0898,0.093,0.0946,0.0951,0.0956,0.096,0.0974,0.1011,0.1021,0.0912,0.0912,0.0912,0,0,0.0559,0.0585,0.0599,0.064,0.0663,0.0689,0.0699,0.0732,0.0763,0.0772,0.0827,0.0849,0.087,0.0912,0.0933,0.0918,0.1002,0.0963,0.0967,0.0978,0.1015,0.1025,0.1035,0.0914,0.0913,0.0913,0,0,0.0568,0.0598,0.062,0.0646,0.0686,0.0704,0.0718,0.0757,0.0787,0.0834,0.0852,0.0889,0.0934,0.0954,0.097,0.1016,0.1031,0.1026,0.1063,0.1099,0.1108,0.1116,0.1162,0.1174,0.1025,0.1025,0.1026,0,0.0566,0.0602,0.063,0.0659,0.0685,0.0713,0.0741,0.0774,0.0823,0.085,0.0858,0.0937,0.0953,0.1007,0.103,0.1028,0.106,0.1037,0.1106,0.1115,0.1123,0.1167,0.118,0.1028,0.1028,0.1027,0.1027,0,0.0588,0.0624,0.0641,0.0687,0.0716,0.0747,0.0789,0.0824,0.0861,0.089,0.0959,0.0989,0.1033,0.1045,0.106,0.1126,0.1136,0.1111,0.1091,0.1137,0.118,0.1193,0.1031,0.1031,0.103,0.1029,0,0,0.0566,0.064,0.0649,0.0678,0.0737,0.0759,0.0814,0.0866,0.0908,0.0958,0.1021,0.1074,0.1094,0.1115,0.1134,0.1172,0.1258,0.1179,0.118,0.1227,0.1364,0.1297,0.1304,0.1256,0.1258,0.126,0.1376,0,0.0577,0.0631,0.067,0.0723,0.0753,0.08,0.0851,0.0902,0.0951,0.1017,0.106,0.1127,0.112,0.1161,0.1195,0.125,0.1293,0.1231,0.1311,0.1314,0.125,0.1316,0.1266,0.1386,0.1389,0.1391,0.1392,0,0.0584,0.0624,0.0677,0.0751,0.077,0.0808,0.0887,0.094,0.1027,0.1071,0.1132,0.1175,0.1257,0.124,0.1345,0.1314,0.1351,0.138,0.1384,0.1315,0.1269,0.1328,0.1415,0.1413,0.1411,0.141,0.1408,0,0.0551,0.0628,0.0673,0.0699,0.0783,0.0822,0.0876,0.0958,0.1016,0.1123,0.1177,0.1253,0.1325,0.1374,0.144,0.141,0.1557,0.1504,0.1476,0.1472,0.1476,0.1465,0.1577,0.1577,0.1577,0.1576,0.1576,0,0.0546,0.0581,0.0666,0.069,0.0753,0.0821,0.0896,0.0959,0.1063,0.1139,0.1214,0.1286,0.1369,0.1454,0.1483,0.1533,0.1586,0.1507,0.1502,0.1493,0.1483,0.1486,0.1474,0.1581,0.158,0.1579,0.1578,0,0.0505,0.0561,0.0612,0.0705,0.074,0.0789,0.0909,0.0963,0.107,0.1177,0.1225,0.135,0.1464,0.1533,0.1636,0.1591,0.1637,0.1639,0.1662,0.1652,0.1518,0.1507,0.1608,0.1607,0.1606,0.1605,0.1604,0,0.0489,0.0514,0.061,0.065,0.0699,0.0783,0.0844,0.0958,0.1021,0.1204,0.1255,0.1411,0.1483,0.1579,0.1643,0.1701,0.1676,0.168,0.1564,0.1539,0.1524,0.1514,0.1505,0.1602,0.1602,0.1602,0.1601,0,0.0456,0.0494,0.0537,0.0618,0.0685,0.0756,0.0857,0.0893,0.1039,0.1141,0.1267,0.1345,0.1478,0.1549,0.1621,0.1645,0.166,0.1668,0.1668,0.1559,0.1533,0.1517,0.1509,0.1598,0.1598,0.1598,0.1599,0,0.0429,0.0447,0.0511,0.058,0.0659,0.0722,0.0774,0.0871,0.0951,0.1143,0.1186,0.135,0.1472,0.1525,0.1586,0.1616,0.1574,0.1495,0.1504,0.1509,0.142,0.1369,0.1402,0,0,0,0,0,0.0402,0.0421,0.0476,0.0547,0.0624,0.0676,0.0785,0.0839,0.0968,0.1033,0.1108,0.1228,0.1341,0.142,0.1432,0.1533,0.157,0.1538,0.1479,0.1576,0.1581,0.1484,0,0,0,0,0,0,0.0385,0.0422,0.0452,0.0511,0.0555,0.0636,0.07,0.0787,0.0829,0.0966,0.1038,0.1147,0.1276,0.1329,0.1408,0.1432,0.1368,0.1636,0.1632,0.1574,0.1578,0.1581,0.1484,0,0,0,0,0]},{"header":{"parameterUnit":"m.s-1","parameterCategory":2,"la1":30.2991,"la2":30.254,"lo1":-89.0895,"lo2":-89.0444,"dy":0.0017,"dx":0.0017,"nx":28,"ny":28,"refTime":"2024-05-13T03:00:00:Z","depth":"4","parameterNumber":3,"parameterNumberName":"V-component_of_CURRENTS"},"data":[0,0,0,0,0,0,0,0,0,0,0,0,0,0,0,0,0,0,0,0,0,0,0,0,0,0,0,0,0,0,0,0,0,0,0,0,0,0,0,0,0,0,0,0,0,0,0,0,0,0,0,0,0,0,0,0,0,0,0.0262,0.0262,0,0.0216,0.0216,0.0215,0.0193,0.0193,0.0193,0.0193,0.0163,0.0162,0.0161,0,0,0,0,0,0,0,0,0,0,0,0,0,0.0305,0.0305,0.0262,0.0261,0.0261,0.0216,0.0216,0.0215,0.0193,0.0193,0.0193,0.0193,0.0163,0.0162,0.0161,0,0,0,0,0,0,0,0,0,0,0,0,0,0.0276,0.0304,0.0262,0.0245,0.0243,0.0216,0.0216,0.0215,0.0193,0.0193,0.0193,0.0193,0.0163,0.0162,0.0161,0.0152,0,0,0.0157,0.0156,0,0,0,0,0,0,0,0,0.0277,0.0274,0.0248,0.0246,0.0244,0.0211,0.022,0.0195,0.0193,0.0212,0.0193,0.0193,0.018,0.0177,0.0168,0.0151,0.015,0.0157,0.0156,0.0156,0.0155,0,0,0,0,0,0,0,0.028,0.0276,0.0244,0.0247,0.0245,0.023,0.0227,0.0215,0.0197,0.021,0.0209,0.0204,0.0179,0.017,0.0168,0.0149,0.0157,0.0156,0.0155,0.0154,0.0155,0.0155,0,0,0,0,0,0,0.0286,0.0278,0.0245,0.0242,0.0261,0.023,0.0225,0.0221,0.0196,0.0193,0.0204,0.0203,0.0172,0.0169,0.0167,0.0169,0.0156,0.0154,0.0154,0.0154,0.0155,0.0156,0,0,0,0,0,0,0.0288,0.0284,0.0247,0.0259,0.0253,0.0229,0.0224,0.022,0.0212,0.0191,0.0188,0.02,0.0172,0.0168,0.0166,0.0168,0.0154,0.0153,0.0153,0.0154,0.0155,0.0166,0,0,0,0,0,0,0.0289,0.0285,0.0285,0.026,0.0253,0.0239,0.0224,0.0219,0.0209,0.0207,0.0187,0.0184,0.0172,0.0169,0.0165,0.0166,0.0152,0.0152,0.0153,0.0155,0.0165,0.0167,0.017,0,0,0,0,0,0.0291,0.0291,0.0285,0.0281,0.0253,0.0239,0.0234,0.0217,0.0209,0.0209,0.02,0.0185,0.0175,0.0168,0.0164,0.0164,0.0151,0.0153,0.0155,0.0164,0.0167,0.017,0,0,0,0,0,0,0.0307,0.0288,0.0281,0.0274,0.0261,0.0235,0.0231,0.0219,0.021,0.0208,0.019,0.0187,0.0186,0.0179,0.0171,0.0171,0.0162,0.0163,0.0171,0.0173,0.0176,0.0155,0.0151,0,0,0,0,0,0.0312,0.0308,0.0288,0.0283,0.0277,0.0254,0.0246,0.0235,0.0222,0.0217,0.0205,0.0196,0.019,0.0185,0.0179,0.0175,0.0144,0.0176,0.0178,0.018,0.0163,0.011,0.0105,0.0161,0.0161,0.0161,0,0,0.0317,0.0305,0.0303,0.0287,0.0273,0.0266,0.0249,0.0239,0.0234,0.0216,0.021,0.0203,0.0192,0.019,0.019,0.0183,0.0156,0.0183,0.0184,0.0165,0.0111,0.0105,0.01,0.0162,0.0162,0.0162,0,0,0.0323,0.0315,0.0313,0.0304,0.0287,0.0276,0.0275,0.0254,0.0246,0.0243,0.0229,0.022,0.0216,0.02,0.0193,0.0206,0.0171,0.0215,0.0204,0.0154,0.0148,0.0142,0.012,0.0112,0.0214,0.0214,0.0214,0,0.0328,0.0321,0.031,0.0305,0.0297,0.0282,0.0277,0.0269,0.0252,0.0243,0.0247,0.022,0.0215,0.0193,0.0202,0.0207,0.0181,0.0192,0.0154,0.0147,0.0141,0.0119,0.011,0.0215,0.0215,0.0215,0.0215,0,0.0328,0.0325,0.0323,0.0313,0.0308,0.0301,0.0289,0.0285,0.0278,0.0263,0.0244,0.023,0.0207,0.0214,0.0211,0.0171,0.017,0.0162,0.0139,0.0135,0.0114,0.0104,0.0216,0.0216,0.0216,0.0215,0,0,0.0323,0.0323,0.0321,0.0321,0.0309,0.0305,0.0302,0.0285,0.0275,0.0261,0.0235,0.0225,0.0204,0.0194,0.0184,0.0144,0.0095,0.0135,0.0132,0.0101,-0.0003,0.0013,0.0004,0.0074,0.0072,0.007,0.0008,0,0.0321,0.0321,0.0318,0.032,0.0316,0.0309,0.0305,0.0293,0.028,0.0257,0.0226,0.0206,0.0201,0.0189,0.0145,0.0113,0.0066,0.0113,0.0015,0.0013,0.0016,-0.0009,0.0063,0.0001,-0.0002,-0.0003,-0.0005,0,0.0312,0.0315,0.0316,0.032,0.0317,0.0318,0.0304,0.0299,0.0267,0.0253,0.0214,0.0193,0.0145,0.0136,0.0046,0.0076,0.0028,-0.0003,-0.0006,-0.0011,0.0009,0.0,-0.0023,-0.0021,-0.002,-0.0019,-0.0018,0,0.0306,0.031,0.0314,0.0314,0.0316,0.0315,0.0314,0.0294,0.0291,0.0244,0.0238,0.0166,0.0147,0.0062,0.0017,0.002,-0.0084,-0.0086,-0.0123,-0.0121,-0.0122,-0.0116,-0.0183,-0.0183,-0.0183,-0.0183,-0.0183,0,0.0296,0.0299,0.0314,0.0316,0.032,0.0318,0.0313,0.0302,0.0283,0.0284,0.0232,0.0221,0.0124,0.0069,0.0001,-0.0079,-0.01,-0.0141,-0.0149,-0.0109,-0.01,-0.0128,-0.012,-0.0185,-0.0185,-0.0184,-0.0184,0,0.0283,0.0293,0.0301,0.0312,0.0317,0.0319,0.0329,0.033,0.0312,0.031,0.03,0.0254,0.0188,0.0098,-0.0021,-0.0078,-0.0168,-0.0198,-0.013,-0.013,-0.0169,-0.016,-0.0258,-0.0259,-0.0259,-0.0259,-0.0259,0,0.0275,0.0278,0.0301,0.0313,0.032,0.0328,0.034,0.0337,0.035,0.0344,0.0352,0.0293,0.0254,0.0111,-0.0,-0.0148,-0.0169,-0.0221,-0.0225,-0.0186,-0.0184,-0.0174,-0.0165,-0.026,-0.026,-0.026,-0.026,0,0.026,0.0271,0.0282,0.031,0.0331,0.0357,0.0382,0.0395,0.0406,0.0393,0.0399,0.0325,0.025,0.0129,0.0015,-0.0092,-0.0192,-0.0224,-0.0225,-0.0229,-0.0188,-0.0184,-0.0175,-0.0261,-0.026,-0.026,-0.026,0,0.0249,0.0257,0.0282,0.0305,0.0339,0.0387,0.0396,0.0428,0.044,0.0447,0.0449,0.0367,0.0314,0.0159,0.0056,-0.0051,-0.0086,-0.0129,-0.0135,-0.0136,-0.0084,-0.0013,-0.0054,0,0,0,0,0,0.0236,0.0252,0.0276,0.0314,0.0355,0.0385,0.0429,0.0443,0.0463,0.0477,0.0466,0.0402,0.0255,0.0191,0.0087,0.0031,-0.012,-0.0098,-0.0175,-0.0265,-0.0264,-0.0223,0,0,0,0,0,0,0.0229,0.0251,0.0271,0.0324,0.0359,0.0415,0.0453,0.0471,0.048,0.0483,0.0413,0.037,0.0229,0.0321,0.0086,0.0051,-0.0015,-0.0169,-0.0172,-0.0265,-0.0264,-0.0264,-0.0221,0,0,0,0,0]}]]